Content
SEND FEEDBACK

Daily
Averages
Monthly
Summary
Germany

LUBECK, GERMANY


Home > Europe > Germany
Elevation: 56 feet     Latitude: 54 00N     Longitude: 011 12E

WEATHER
 
SELECT A DAY
Number of Records: 58,336;   Date Range: 7/3/96 - 7/27/14
 
SHARE

PRINT THIS DATA

[ ← Previous Day ]
WEATHER ALMANAC - OCTOBER 22, 2013
[ Next Day → ]
[ °C ]   °F
Weather ElementAverageHighLow
Temperature61.3 °F66.2 °F (2:20 pm)53.6 °F (6:50 am)
Dewpoint55.4 °F59 °F (3:50 pm)51.8 °F (6:50 am)
Humidity81.3 %94 % (6:50 am)72 % (12:20 pm)
Barometer29.78 in29.86 in (6:50 am)29.68 in (8:50 pm)
Wind Speed7.1 mph10.4 mph (11:50 am)
Weather ElementAverage
Wind DirectionSSE (164.3 °)

Weather ElementTotal
Precipitation---
Heating Degree Days5.1 (Base 65)
Growing Degree Days9.9 (Base 50)
Averaged from 30 records on October 22, 2013
WEATHER CONDITIONS BREAKOUT
WIND DIRECTION BREAKOUT
WEATHER BY HOUR - OCTOBER 22, 2013
[ °C ]   °F
Local TimeTemperatureDewpointHumidityBarometerVisibilityWind DirectionWind SpeedGust SpeedPrecipitationEventsConditions
6:50 AM53.6 °F51.8 °F94 %29.86 inSouth (180°)6.9 mphClear
7:20 AM53.6 °F51.8 °F94 %29.86 inSouth (170°)5.8 mphClear
7:50 AM53.6 °F51.8 °F94 %29.86 inSouth (170°)6.9 mphClear
8:20 AM53.6 °F51.8 °F94 %29.86 inSouth (170°)5.8 mphClear
8:50 AM53.6 °F51.8 °F94 %29.86 inSouth (170°)4.6 mphClear
9:20 AM55.4 °F51.8 °F88 %29.86 inSouth (170°)5.8 mphClear
9:50 AM57.2 °F51.8 °F82 %29.86 inSouth (170°)5.8 mphClear
10:20 AM57.2 °F51.8 °F82 %29.86 inSouth (190°)6.9 mphClear
10:50 AM59.0 °F51.8 °F77 %29.83 inSouth (170°)9.2 mphClear
11:20 AM60.8 °F53.6 °F77 %29.83 inSouth (180°)8.1 mphClear
11:50 AM60.8 °F53.6 °F77 %29.83 inSouth (170°)10.4 mphClear
12:20 PM62.6 °F53.6 °F72 %29.83 inSouth (170°)9.2 mphClear
12:50 PM62.6 °F55.4 °F77 %29.80 inSouth (170°)8.1 mphClear
1:20 PM62.6 °F55.4 °F77 %29.80 inSouth (170°)8.1 mphClear
1:50 PM64.4 °F57.2 °F77 %29.77 inSSE (160°)5.8 mphClear
2:20 PM66.2 °F57.2 °F73 %29.77 inSSE (150°)8.1 mphClear
2:50 PM66.2 °F57.2 °F73 %29.74 inSouth (170°)9.2 mphClear
3:20 PM66.2 °F57.2 °F73 %29.74 inSSE (160°)8.1 mphClear
3:50 PM66.2 °F59.0 °F78 %29.74 inSSE (150°)6.9 mphClear
4:50 PM66.2 °F59.0 °F78 %29.74 inSSE (160°)5.8 mphClear
5:20 PM66.2 °F59.0 °F78 %29.71 inSSE (160°)5.8 mphClear
5:50 PM64.4 °F59.0 °F83 %29.71 inSSE (160°)5.8 mphClear
6:20 PM64.4 °F59.0 °F83 %29.71 inSSE (150°)6.9 mphClear
6:50 PM64.4 °F57.2 °F77 %29.71 inSSE (150°)6.9 mphClear
7:20 PM64.4 °F57.2 °F77 %29.71 inSSE (150°)8.1 mphClear
7:50 PM62.6 °F57.2 °F82 %29.71 inSSE (150°)8.1 mphClear
8:20 PM62.6 °F57.2 °F82 %29.71 inSSE (160°)6.9 mphClear
8:50 PM62.6 °F57.2 °F82 %29.68 inSSE (160°)6.9 mphClear
9:20 PM62.6 °F57.2 °F82 %29.68 inSouth (170°)5.8 mphClear
9:50 PM62.6 °F57.2 °F82 %29.68 inSSE (150°)5.8 mphClear
Hourly data recorded from EDHL, located miles away from Lubeck, Germany







STORIES FROM OUR PARTNERS